This is the latest recevied weather packets stored in our database for station/object KC4JY. If no packets are shown the sender has not sent any weather packets the latest 10 day(s).
| Time | Temp. | Humidity | Pressure | Rain* | Wind** | Luminosity | Snow |
|---|---|---|---|---|---|---|---|
| 1777874416 | 9.44° C | 80% | 1017.9 hPa | 0 mm | - | - | - |
| 1777873554 | 9.44° C | 78% | 1018.1 hPa | 0 mm | - | - | - |
| 1777872651 | 10° C | 77% | 1018.2 hPa | 0 mm | - | - | - |
| 1777871752 | 10° C | 76% | 1018.3 hPa | 0 mm | - | - | - |
| 1777870848 | 10° C | 76% | 1018.4 hPa | 0 mm | - | - | - |
| 1777869947 | 10.56° C | 74% | 1018.3 hPa | 0 mm | - | - | - |
| 1777869043 | 10.56° C | 72% | 1018.2 hPa | 0 mm | - | - | - |
| 1777868141 | 11.11° C | 70% | 1018.1 hPa | 0 mm | - | - | - |
| 1777867241 | 11.11° C | 66% | 1018 hPa | 0 mm | - | - | - |
| 1777866330 | 11.11° C | 66% | 1018 hPa | 0 mm | - | - | - |
| 1777865434 | 10.56° C | 67% | 1017.9 hPa | 0 mm | - | - | - |
| 1777864501 | 10° C | 71% | 1018.1 hPa | 0 mm | - | - | - |
| 1777863660 | 9.44° C | 80% | 1018 hPa | 0 mm | - | - | - |
| 1777862763 | 9.44° C | 77% | 1018 hPa | 0 mm | - | - | - |
| 1777861845 | 10° C | 72% | 1017.9 hPa | 0 mm | - | - | - |
| 1777860950 | 10° C | 73% | 1017.8 hPa | 0 mm | - | - | - |
| 1777860024 | 10.56° C | 75% | 1017.7 hPa | 0 mm | - | - | - |
| 1777859124 | 10.56° C | 69% | 1017.5 hPa | 0 mm | - | - | - |
| 1777858207 | 11.11° C | 72% | 1017.3 hPa | 0 mm | - | - | - |
| 1777857306 | 11.67° C | 68% | 1017.1 hPa | 0 mm | - | - | - |
| 1777856456 | 11.67° C | 66% | 1016.9 hPa | 0 mm | - | - | - |
| 1777855563 | 12.22° C | 58% | 1016.8 hPa | 0 mm | - | - | - |
| 1777854657 | 12.78° C | 59% | 1016.6 hPa | 0 mm | - | - | - |
| 1777853757 | 13.33° C | 54% | 1016.5 hPa | 0 mm | - | - | - |
| 1777852854 | 14.44° C | 51% | 1016.4 hPa | 0 mm | - | - | - |
* Rain latest hour (hover to see other rain measurements)
** Current wind speed in m/s (hover to see current wind gust speed)